This is the latest recevied weather packets stored in our database for station/object K3TLB-13. If no packets are shown the sender has not sent any weather packets the latest 1 day(s).
| Time | Temp. | Humidity | Pressure | Rain* | Wind** | Luminosity | Snow |
|---|---|---|---|---|---|---|---|
| 1778017141 | 27.22° C | 34% | 1007.6 hPa | 0 mm | 4.02 m/s, 188° | - | - |
| 1778016841 | 27.22° C | 34% | 1007.5 hPa | 0 mm | 4.47 m/s, 228° | - | - |
| 1778016541 | 27.22° C | 34% | 1007.5 hPa | 0 mm | 4.47 m/s, 174° | - | - |
| 1778016244 | 26.67° C | 35% | 1007.3 hPa | 0 mm | 4.02 m/s, 145° | - | - |
| 1778015941 | 26.67° C | 34% | 1007.4 hPa | 0 mm | 3.58 m/s, 214° | - | - |
| 1778015641 | 26.67° C | 34% | 1007.4 hPa | 0 mm | 3.13 m/s, 148° | - | - |
| 1778015341 | 26.67° C | 34% | 1007.4 hPa | 0 mm | 4.47 m/s, 193° | - | - |
| 1778015041 | 27.22° C | 34% | 1007.5 hPa | 0 mm | 4.02 m/s, 171° | - | - |
| 1778014741 | 27.22° C | 34% | 1007.4 hPa | 0 mm | 4.02 m/s, 179° | - | - |
| 1778014441 | 27.78° C | 34% | 1007.5 hPa | 0 mm | 4.02 m/s, 233° | - | - |
| 1778014141 | 27.22° C | 36% | 1007.5 hPa | 0 mm | 3.58 m/s, 229° | - | - |
| 1778013841 | 27.22° C | 34% | 1007.5 hPa | 0 mm | 3.58 m/s, 234° | - | - |
| 1778013541 | 27.22° C | 34% | 1007.4 hPa | 0 mm | 3.13 m/s, 184° | - | - |
| 1778013241 | 26.67° C | 35% | 1007.6 hPa | 0 mm | 3.58 m/s, 210° | - | - |
| 1778012941 | 26.67° C | 35% | 1007.7 hPa | 0 mm | 4.02 m/s, 136° | - | - |
| 1778012641 | 27.22° C | 35% | 1007.5 hPa | 0 mm | 4.02 m/s, 196° | - | - |
| 1778012341 | 27.22° C | 35% | 1007.7 hPa | 0 mm | 4.02 m/s, 244° | - | - |
| 1778012041 | 27.22° C | 35% | 1007.8 hPa | 0 mm | 4.92 m/s, 219° | - | - |
| 1778011741 | 27.22° C | 35% | 1007.7 hPa | 0 mm | 4.92 m/s, 227° | - | - |
| 1778011441 | 27.22° C | 35% | 1007.7 hPa | 0 mm | 4.47 m/s, 192° | - | - |
| 1778011141 | 27.22° C | 35% | 1008 hPa | 0 mm | 4.92 m/s, 202° | - | - |
| 1778010841 | 27.22° C | 35% | 1008 hPa | 0 mm | 4.92 m/s, 214° | - | - |
| 1778010541 | 26.67° C | 35% | 1008.1 hPa | 0 mm | 4.47 m/s, 184° | - | - |
| 1778010241 | 26.67° C | 34% | 1008 hPa | 0 mm | 4.02 m/s, 207° | - | - |
| 1778009941 | 26.67° C | 35% | 1008.1 hPa | 0 mm | 4.02 m/s, 247° | - | - |
* Rain latest hour (hover to see other rain measurements)
** Current wind speed in m/s (hover to see current wind gust speed)